TimeEST,TemperatureF,Dew PointF,Humidity,Sea Level PressureIn,VisibilityMPH,Wind Direction,Wind SpeedMPH,Gust SpeedMPH,PrecipitationIn,Events,Conditions,WindDirDegrees,DateUTC
12:52 AM,27.0,24.1,89,29.93,9.0,Calm,Calm,-,N/A,,Clear,0,2013-02-13 05:52:00
1:52 AM,23.0,23.0,100,29.91,7.0,Calm,Calm,-,N/A,,Clear,0,2013-02-13 06:52:00
2:52 AM,26.6,23.0,86,29.86,7.0,NNW,3.5,-,N/A,,Mostly Cloudy,330,2013-02-13 07:52:00
3:52 AM,26.1,25.0,96,29.89,6.0,NW,3.5,-,N/A,,Mostly Cloudy,310,2013-02-13 08:52:00
4:16 AM,26.6,26.6,100,29.85,6.0,Calm,Calm,-,N/A,,Overcast,0,2013-02-13 09:16:00
4:52 AM,27.0,25.0,92,29.88,5.0,Calm,Calm,-,N/A,,Overcast,0,2013-02-13 09:52:00
5:52 AM,27.0,25.0,92,29.86,5.0,Calm,Calm,-,N/A,,Partly Cloudy,0,2013-02-13 10:52:00
6:52 AM,26.1,24.1,92,29.84,5.0,NNE,4.6,-,N/A,,Scattered Clouds,20,2013-02-13 11:52:00
7:03 AM,26.6,24.8,93,29.80,5.0,NNE,3.5,-,N/A,,Mostly Cloudy,20,2013-02-13 12:03:00
7:10 AM,26.6,24.8,93,29.80,4.0,North,4.6,-,N/A,,Scattered Clouds,10,2013-02-13 12:10:00
7:52 AM,26.1,24.1,92,29.83,3.0,North,4.6,-,N/A,,Clear,10,2013-02-13 12:52:00
8:11 AM,26.6,24.8,93,29.78,3.0,North,6.9,-,N/A,,Mostly Cloudy,360,2013-02-13 13:11:00
8:50 AM,26.6,24.8,93,29.77,4.0,North,10.4,-,N/A,,Overcast,10,2013-02-13 13:50:00
8:52 AM,27.0,24.1,89,29.81,4.0,North,10.4,-,N/A,,Overcast,360,2013-02-13 13:52:00
9:52 AM,27.0,24.1,89,29.83,6.0,North,8.1,-,N/A,,Overcast,10,2013-02-13 14:52:00
10:52 AM,28.0,24.1,85,29.83,7.0,NE,3.5,-,N/A,,Overcast,50,2013-02-13 15:52:00
11:52 AM,28.9,24.1,82,29.82,7.0,Calm,Calm,-,N/A,,Overcast,0,2013-02-13 16:52:00
12:52 PM,30.0,25.0,82,29.78,7.0,Calm,Calm,-,N/A,,Mostly Cloudy,0,2013-02-13 17:52:00
1:52 PM,30.9,25.0,79,29.78,7.0,WNW,5.8,-,N/A,,Overcast,290,2013-02-13 18:52:00
2:52 PM,30.0,24.1,79,29.77,6.0,NNW,10.4,-,N/A,,Haze,330,2013-02-13 19:52:00
3:52 PM,30.0,24.1,79,29.78,7.0,NW,6.9,-,N/A,,Overcast,310,2013-02-13 20:52:00
4:52 PM,30.0,24.1,79,29.77,8.0,Calm,Calm,-,N/A,,Overcast,0,2013-02-13 21:52:00
5:25 PM,30.2,24.8,80,29.74,8.0,Calm,Calm,-,N/A,,Scattered Clouds,0,2013-02-13 22:25:00
5:52 PM,28.9,23.0,78,29.79,8.0,Calm,Calm,-,N/A,,Clear,0,2013-02-13 22:52:00
6:52 PM,27.0,23.0,85,29.81,8.0,WSW,3.5,-,N/A,,Clear,250,2013-02-13 23:52:00
7:52 PM,26.1,24.1,92,29.84,7.0,WSW,5.8,-,N/A,,Clear,240,2013-02-14 00:52:00
8:52 PM,24.1,21.9,91,29.85,6.0,SSW,6.9,-,N/A,,Clear,210,2013-02-14 01:52:00
9:52 PM,23.0,21.0,92,29.86,5.0,SSW,6.9,-,N/A,,Clear,200,2013-02-14 02:52:00
10:52 PM,24.1,21.9,91,29.87,6.0,SSW,8.1,-,N/A,,Clear,210,2013-02-14 03:52:00
11:52 PM,25.0,23.0,92,29.87,6.0,South,8.1,-,N/A,,Clear,180,2013-02-14 04:52:00